[[{"header":{"parameterUnit":"m.s-1","parameterCategory":1,"la1":30.2991,"la2":30.254,"lo1":-89.0895,"lo2":-89.0444,"dy":0.0017,"dx":0.0017,"nx":28,"ny":28,"refTime":"2025-06-06T03:00:00:Z","depth":0,"parameterNumber":2,"parameterNumberName":"U-component_of_WINDS"},"data":[0,0,0,0,0,0,0,0,0,0,0,0,0,0,0,0,0,0,0,0,0,0,0,0,0,0,0,0,0,0,0,0,0,0,0,0,0,0,0,0,0,0,0,0,0,0,0,0,0,0,0,0,0,0,0,0,0,0,3.4448,3.4449,0,3.4529,3.453,3.4531,3.4546,3.4545,3.4544,3.4544,3.4625,3.4628,3.4631,0,0,0,0,0,0,0,0,0,0,0,0,0,3.4305,3.4307,3.4448,3.4449,3.445,3.4529,3.453,3.4531,3.4546,3.4545,3.4544,3.4543,3.4624,3.4627,3.4631,0,0,0,0,0,0,0,0,0,0,0,0,0,3.4374,3.4308,3.4448,3.4467,3.4469,3.4529,3.453,3.4531,3.4546,3.4545,3.4544,3.4543,3.4623,3.4627,3.4631,3.4677,0,0,3.4644,3.4646,0,0,0,0,0,0,0,0,3.437,3.438,3.4463,3.4466,3.4469,3.4526,3.4509,3.458,3.4546,3.4517,3.4544,3.4543,3.4593,3.4599,3.4617,3.468,3.4684,3.4644,3.4647,3.4649,3.465,0,0,0,0,0,0,0,3.4366,3.4376,3.448,3.4464,3.4468,3.4471,3.448,3.4523,3.4559,3.4519,3.4521,3.453,3.4594,3.4613,3.4619,3.4685,3.4644,3.4648,3.465,3.4652,3.479,3.4791,0,0,0,0,0,0,3.4358,3.4372,3.4477,3.4482,3.4416,3.4474,3.4484,3.4509,3.4559,3.4566,3.4531,3.453,3.4606,3.4614,3.4622,3.4678,3.4649,3.4653,3.4655,3.4789,3.479,3.4792,0,0,0,0,0,0,3.4355,3.4367,3.4474,3.4428,3.4442,3.4478,3.4505,3.4511,3.4529,3.4568,3.4574,3.4543,3.4606,3.4616,3.4663,3.4681,3.4654,3.4658,3.4788,3.4789,3.4791,3.4792,0,0,0,0,0,0,3.435,3.4366,3.4384,3.4428,3.4444,3.4515,3.4506,3.4513,3.4537,3.4537,3.4581,3.4587,3.4606,3.4657,3.4667,3.4686,3.4661,3.4786,3.4788,3.479,3.479,3.4793,3.4796,0,0,0,0,0,3.4345,3.438,3.4384,3.4397,3.4467,3.4516,3.4525,3.4546,3.4538,3.4556,3.4581,3.4586,3.4678,3.4661,3.4673,3.4694,3.4785,3.4788,3.479,3.4789,3.4792,3.4796,0,0,0,0,0,0,3.4336,3.4386,3.4392,3.4442,3.4475,3.4518,3.4541,3.4549,3.4584,3.4582,3.4606,3.4616,3.4662,3.4683,3.4664,3.4741,3.4731,3.4736,3.4725,3.4729,3.4732,3.4726,3.4665,0,0,0,0,0,3.434,3.4376,3.4417,3.4458,3.4474,3.4505,3.4527,3.454,3.4574,3.4588,3.4616,3.4649,3.4685,3.4708,3.4744,3.4793,3.4803,3.4813,3.4816,3.4818,3.4822,3.485,3.4855,3.48,3.48,3.48,0,0,3.4349,3.438,3.4401,3.4457,3.4484,3.4519,3.4516,3.4554,3.4581,3.4594,3.464,3.4662,3.47,3.4748,3.4771,3.4767,3.484,3.4822,3.4823,3.4826,3.4853,3.4858,3.4863,3.4802,3.4802,3.4801,0,0,3.4382,3.441,3.4447,3.4474,3.4515,3.4535,3.4544,3.4587,3.4602,3.4649,3.4659,3.4691,3.4753,3.4779,3.4801,3.4845,3.4851,3.4856,3.4871,3.4897,3.4902,3.4906,3.4921,3.4927,3.486,3.486,3.486,0,3.4388,3.4443,3.4465,3.4503,3.4527,3.4541,3.4578,3.4603,3.4653,3.4669,3.4664,3.4742,3.4768,3.4823,3.4834,3.4851,3.4862,3.4851,3.4899,3.4904,3.4908,3.4923,3.4928,3.486,3.486,3.486,3.486,0,3.4447,3.4485,3.451,3.4558,3.4585,3.4622,3.465,3.4674,3.4686,3.4706,3.4754,3.4786,3.4829,3.4843,3.4854,3.4899,3.4895,3.4895,3.4885,3.4913,3.4927,3.4933,3.4861,3.4861,3.4861,3.4861,0,0,3.4477,3.4538,3.4547,3.4569,3.4615,3.4645,3.4682,3.4724,3.4745,3.4779,3.4811,3.4863,3.4863,3.4887,3.4901,3.4925,3.4957,3.4921,3.4922,3.4926,3.5009,3.5009,3.5016,3.4961,3.4963,3.4964,3.5006,0,3.4516,3.4585,3.4606,3.4663,3.4699,3.4712,3.4745,3.4777,3.4797,3.4829,3.4852,3.4888,3.4885,3.49,3.4924,3.4948,3.4974,3.4946,3.4991,3.4992,3.4981,3.5024,3.5024,3.5062,3.5012,3.5013,3.5014,0,3.4571,3.4607,3.4668,3.471,3.4725,3.4754,3.4794,3.4825,3.4861,3.4875,3.4902,3.4914,3.4954,3.4942,3.4997,3.4977,3.4997,3.5011,3.5013,3.5018,3.5004,3.5029,3.5075,3.5081,3.5023,3.5022,3.5021,0,3.4587,3.465,3.4695,3.4713,3.4763,3.4784,3.4805,3.484,3.4864,3.4899,3.4915,3.4953,3.4975,3.5004,3.5026,3.5016,3.5079,3.5069,3.5091,3.509,3.5103,3.5102,3.5152,3.5116,3.5116,3.5116,3.5116,0,3.4628,3.4665,3.4703,3.473,3.4771,3.4795,3.4835,3.4858,3.4889,3.492,3.4934,3.4963,3.4991,3.5024,3.5041,3.5084,3.5093,3.5105,3.5109,3.5103,3.5102,3.5117,3.5114,3.5118,3.5117,3.5117,3.5117,0,3.4653,3.468,3.4729,3.4773,3.4784,3.4813,3.485,3.4877,3.4898,3.4937,3.4948,3.4981,3.502,3.5045,3.5095,3.5107,3.5153,3.5157,3.5141,3.5143,3.5163,3.5161,3.5225,3.5234,3.5192,3.5192,3.5193,0,3.4677,3.4706,3.4753,3.4775,3.4797,3.4833,3.4858,3.4883,3.4907,3.4951,3.4972,3.5013,3.5046,3.5108,3.5136,3.5174,3.5179,3.5198,3.5184,3.5178,3.5179,3.5177,3.5179,3.52,3.5201,3.5201,3.5201,0,3.4718,3.473,3.4766,3.4806,3.4835,3.4867,3.49,3.4917,3.4947,3.4974,3.5015,3.5041,3.5092,3.5132,3.5173,3.5195,3.5203,3.5206,3.5213,3.5207,3.5197,3.5202,3.5147,3.5204,3.5204,3.5203,3.5203,3.5203,3.4744,3.477,3.4807,3.4846,3.4873,3.4903,3.493,3.4955,3.499,3.5034,3.5046,3.5088,3.5123,3.5179,3.5201,3.5235,3.5232,3.5242,3.5245,3.5247,3.5247,3.5192,3.5242,3.5242,3.5242,3.5242,3.5242,0,3.4785,3.4809,3.4845,3.489,3.4921,3.4927,3.4963,3.4988,3.5025,3.5058,3.5091,3.5137,3.5176,3.5207,3.5247,3.5267,3.5272,3.5277,3.5275,3.528,3.5247,3.5237,3.5272,3.5272,3.5272,3.5272,3.5272,3.5272,3.481,3.4854,3.4871,3.4929,3.4953,3.4995,3.5015,3.5043,3.5069,3.512,3.5153,3.5173,3.5205,3.5247,3.5283,3.5291,3.5304,3.5308,3.5317,3.5286,3.5282,3.5279,3.527,3.5311,3.5311,3.5347,3.5348,3.5348]},{"header":{"parameterUnit":"m.s-1","parameterCategory":1,"la1":30.2991,"la2":30.254,"lo1":-89.0895,"lo2":-89.0444,"dy":0.0017,"dx":0.0017,"nx":28,"ny":28,"refTime":"2025-06-06T03:00:00:Z","depth":0,"parameterNumber":3,"parameterNumberName":"V-component_of_WINDS"},"data":[0,0,0,0,0,0,0,0,0,0,0,0,0,0,0,0,0,0,0,0,0,0,0,0,0,0,0,0,0,0,0,0,0,0,0,0,0,0,0,0,0,0,0,0,0,0,0,0,0,0,0,0,0,0,0,0,0,0,1.4441,1.4442,0,1.4506,1.4507,1.4508,1.4535,1.4535,1.4535,1.4535,1.4599,1.4601,1.4603,0,0,0,0,0,0,0,0,0,0,0,0,0,1.4337,1.4339,1.4441,1.4442,1.4443,1.4506,1.4507,1.4508,1.4535,1.4535,1.4535,1.4534,1.4598,1.4601,1.4603,0,0,0,0,0,0,0,0,0,0,0,0,0,1.439,1.434,1.4441,1.4464,1.4467,1.4506,1.4507,1.4508,1.4535,1.4535,1.4535,1.4534,1.4598,1.46,1.4603,1.4624,0,0,1.4612,1.4613,0,0,0,0,0,0,0,0,1.4387,1.4394,1.446,1.4462,1.4465,1.4512,1.4494,1.4547,1.4535,1.4509,1.4535,1.4534,1.457,1.4575,1.4588,1.4627,1.463,1.4612,1.4614,1.4615,1.4616,0,0,0,0,0,0,0,1.4384,1.4392,1.4467,1.4461,1.4464,1.447,1.4477,1.4504,1.454,1.4511,1.4513,1.4521,1.4572,1.4585,1.459,1.4631,1.4612,1.4614,1.4616,1.4617,1.469,1.4691,0,0,0,0,0,0,1.4377,1.4388,1.4465,1.4469,1.4425,1.4472,1.448,1.4497,1.454,1.4546,1.4521,1.4522,1.4581,1.4586,1.4592,1.462,1.4615,1.4617,1.4619,1.469,1.469,1.4691,0,0,0,0,0,0,1.4374,1.4383,1.4462,1.4429,1.444,1.4474,1.4493,1.4499,1.4512,1.4547,1.4553,1.4528,1.4581,1.4588,1.4616,1.4622,1.4619,1.4621,1.469,1.469,1.4691,1.4674,0,0,0,0,0,0,1.4371,1.4382,1.4391,1.4429,1.4441,1.4486,1.4494,1.45,1.4517,1.4519,1.4556,1.4561,1.4581,1.4612,1.4619,1.4626,1.4623,1.4689,1.469,1.469,1.4675,1.4674,1.4674,0,0,0,0,0,1.4367,1.4384,1.4391,1.4401,1.4454,1.4486,1.4493,1.4516,1.4518,1.4527,1.4549,1.456,1.462,1.4614,1.4623,1.463,1.4689,1.469,1.469,1.4675,1.4674,1.4674,0,0,0,0,0,0,1.4345,1.4389,1.4398,1.4427,1.4453,1.4491,1.4503,1.4515,1.454,1.4541,1.4567,1.4575,1.4601,1.4618,1.4611,1.4653,1.4655,1.4658,1.4641,1.4641,1.464,1.4636,1.4626,0,0,0,0,0,1.4343,1.4367,1.4404,1.4426,1.4438,1.4468,1.4484,1.4499,1.4526,1.4537,1.4561,1.4586,1.4611,1.4627,1.4651,1.4677,1.4685,1.4686,1.4686,1.4685,1.4687,1.4702,1.4703,1.4693,1.4693,1.4693,0,0,1.434,1.4367,1.438,1.4422,1.4444,1.4467,1.4477,1.4502,1.4519,1.454,1.4569,1.4587,1.4617,1.4644,1.4657,1.4659,1.4692,1.4686,1.4686,1.4688,1.4703,1.4704,1.4705,1.4693,1.4693,1.4693,0,0,1.4347,1.437,1.4391,1.4412,1.4445,1.4465,1.4469,1.4506,1.4519,1.4548,1.4564,1.4585,1.4626,1.4647,1.4663,1.4677,1.4688,1.4684,1.4682,1.4696,1.4697,1.4698,1.4703,1.4704,1.4685,1.4685,1.4685,0,1.4339,1.4375,1.44,1.4423,1.4441,1.4462,1.4483,1.4502,1.4541,1.4552,1.4554,1.4607,1.4629,1.4661,1.4664,1.4676,1.4682,1.468,1.4695,1.4696,1.4697,1.4702,1.4704,1.4685,1.4685,1.4685,1.4685,0,1.4364,1.4389,1.4402,1.4439,1.4458,1.448,1.4507,1.4523,1.4537,1.4556,1.4585,1.4611,1.4641,1.465,1.4663,1.4684,1.4684,1.469,1.4693,1.4697,1.4702,1.4705,1.4684,1.4684,1.4684,1.4684,0,0,1.4359,1.441,1.4414,1.4431,1.4469,1.4488,1.451,1.4541,1.4554,1.4579,1.4599,1.4633,1.4639,1.4657,1.4673,1.4685,1.4694,1.4689,1.4691,1.469,1.4718,1.4714,1.4716,1.4701,1.4702,1.4702,1.4716,0,1.4371,1.4414,1.4436,1.4468,1.4492,1.4511,1.4531,1.4555,1.4574,1.4595,1.4615,1.4639,1.4645,1.4656,1.4669,1.469,1.47,1.4689,1.4719,1.472,1.4712,1.4718,1.4714,1.4726,1.4718,1.4718,1.4718,0,1.4391,1.4417,1.4452,1.4487,1.4497,1.4515,1.4544,1.4564,1.4592,1.4604,1.4624,1.4639,1.4663,1.4664,1.4697,1.4689,1.4702,1.4714,1.4715,1.4719,1.472,1.4723,1.473,1.4732,1.4722,1.4721,1.4721,0,1.4384,1.4428,1.4455,1.4469,1.451,1.4521,1.4539,1.4566,1.4583,1.4608,1.4619,1.4646,1.4661,1.4681,1.4703,1.4701,1.4733,1.4736,1.4744,1.4743,1.475,1.4749,1.476,1.4758,1.4758,1.4757,1.4757,0,1.4396,1.4417,1.4452,1.4469,1.4493,1.4517,1.454,1.4558,1.4583,1.4602,1.462,1.4638,1.4666,1.4687,1.4704,1.4728,1.4735,1.4745,1.4749,1.4744,1.4742,1.4753,1.4753,1.4758,1.4758,1.4758,1.4758,0,1.4393,1.4418,1.4448,1.4484,1.4494,1.4509,1.454,1.4556,1.4575,1.46,1.4607,1.4636,1.4662,1.4685,1.4719,1.4731,1.4756,1.4761,1.4747,1.4749,1.4756,1.4755,1.4774,1.4777,1.4772,1.4772,1.4772,0,1.4399,1.4415,1.4453,1.4468,1.4486,1.4509,1.4526,1.4551,1.4568,1.46,1.4612,1.464,1.4663,1.4703,1.4727,1.4753,1.4759,1.4763,1.4763,1.4757,1.4759,1.4758,1.476,1.4763,1.4763,1.4763,1.4763,0,1.4407,1.4418,1.4443,1.4472,1.4492,1.4515,1.4539,1.455,1.4579,1.4597,1.4624,1.4642,1.4676,1.4703,1.4732,1.4748,1.4761,1.4763,1.4766,1.4761,1.4753,1.4758,1.4746,1.4763,1.4763,1.4763,1.4763,1.4763,1.4409,1.4425,1.4454,1.448,1.4501,1.4523,1.454,1.4561,1.4584,1.4615,1.4628,1.4655,1.4682,1.4721,1.4738,1.4759,1.4761,1.4766,1.4767,1.4768,1.4767,1.4749,1.4764,1.4764,1.4764,1.4764,1.4764,0,1.4419,1.4438,1.4462,1.4496,1.4516,1.4526,1.4553,1.4569,1.4594,1.4618,1.464,1.4671,1.4696,1.4722,1.4749,1.4761,1.4767,1.4767,1.4767,1.477,1.4764,1.4758,1.4762,1.4762,1.4762,1.4762,1.4762,1.4762,1.4426,1.4453,1.4468,1.4505,1.4524,1.4552,1.4566,1.4586,1.4606,1.4639,1.4661,1.4678,1.4702,1.4731,1.4755,1.4761,1.4771,1.4769,1.4777,1.4771,1.4771,1.4771,1.4766,1.4771,1.4771,1.4783,1.4783,1.4783]}]]